Find Starlink 32937

NORAD ID: 63148 Int'l Des: 2025-043 Owner: SPXS Country: US Constellation: starlink operational
LEOCIRCULAR

当前视图

正在加载3D地球...

About Starlink 32937

Starlink 32937 (NORAD 63148) is a starlink constellation satellite (v2 mini) launched Mar 3, 2025 by SPXS of US. It operates in LEO, CIRCULAR orbit with a mass of 730.00 kg.

即将过境

Passes for default location (London). Set your location on the main map for personalized predictions.

高度历史

Loading altitude history...

两行轨道根数

1 63148U 25043S 26263.54506620 .00012513 00000-0 46325-3 0 9998
2 63148 42.9994 355.7309 0000696 220.1315 139.9485 15.27594900 87161
Epoch: Sep 20, 2026 • Age: 7 hours

当前状态

高度 482.3 km
远地点 / 近地点 N/A
速度 7.63 km/s
星下点 21.38°N, 150.34°W
发射日期 Mar 3, 2025
运行时间 1.5 years
类型 internet

技术详情

分类 Payload
质量 730.00 kg
干质量 700.00 kg
长度 0.30 m
跨度 29.00 m
形状 ? Box + pan
制造商 SPXS
平台类型 Starlink V2M
阶段状态 In Orbit
所有者/国家 SPXS/US

Most Searched